Вернуться в каталог

ONEWEB-0630

АктивенСвязьPO
NORAD 56072·PAYLOAD·🇬🇧 United Kingdom

Запущен Mar 26, 2023 с Satish Dhawan Space Centre

Loading…

Ближайшие Пролёты (ближайшие 24 часа)

TLE

СвежийSource: CelesTrak SupGP

Эпоха: Sep 14, 2026, 20:29 UTC

1 56072C 23043AC  26257.85363843  .00002199  00000+0  58485-2 0  2573
2 56072  87.8993 241.3192 0002093  79.5051 317.5090 13.15549112    17

Отслеживайте ONEWEB-0630 в реальном времени с AllMySat

Download on the App Store